Other Public Products
Issued by NWS Grand Forks, ND

Home | Current Version | Previous Version | Graphics & Text | Print | Product List | Glossary On
Versions: 1 2 3 4 5 6 7 8 9 10 11 12 13 14 15 16 17 18 19 20 21 22 23 24 25 26 27 28 29 30 31 32 33 34 35 36 37 38 39 40 41 42 43 44 45 46 47 48 49 50
000
FPUS83 KFGF 282010
OPUFGF
PRAIRIE TO PINES WEATHER ROUNDUP
NATIONAL WEATHER SERVICE EASTERN NORTH DAKOTA/GRAND FORKS ND
300 PM CDT WED SEP 28 2016

 **SATELLITE DATA USED TO AUGMENT SKY COVER AT AUTOMATED STATIONS**
 *****  WEATHER ACROSS EASTERN NORTH DAKOTA  *****

CITY           SKY/WX    TMP DP  RH WIND       PRES   REMARKS
GRAND FORKS    PTSUNNY   60  46  59 E5        30.32S
GRAND FORKS AF MOSUNNY   59  46  63 NE6       30.32F
GRAND CITY NWS   N/A     57 N/A N/A N7          N/A
BUXTON         NOT AVBL
DEVILS LAKE    SUNNY     56  46  69 NW3       30.33S
FARGO          PTSUNNY   63  46  54 NE8       30.30S
WAHPETON ARPT  MOCLDY    61  45  55 E6        30.30S
$$

 *****  WEATHER ACROSS CENTRAL AND WESTERN NORTH DAKOTA  *****

CITY           SKY/WX    TMP DP  RH WIND       PRES   REMARKS
JAMESTOWN      SUNNY     60  46  59 CALM      30.30F
BISMARCK       SUNNY     68  36  30 CALM      30.29S
MINOT          SUNNY     69  38  32 E8        30.28S
MINOT AFB      SUNNY     68  39  34 SE8       30.28R
GARRISON         N/A     69  34  27 SE9       30.28S
WILLISTON      SUNNY     72  51  47 CALM      30.25F
DICKINSON      SUNNY     73  45  36 SE12      30.24F
HETTINGER      SUNNY     76  48  37 SE9       30.27S
$$

 *****  OTHER OBSERVATIONS NORTHEAST NORTH DAKOTA  *****

CITY           SKY/WX    TMP DP  RH WIND       PRES   REMARKS
WALHALLA       FAIR      59  55  88 N3        30.33S
LANGDON        FAIR      63  46  55 CALM      30.33S
CAVALIER       MOCLDY    59  46  63 N7        30.33R
GRAFTON        FAIR      59  46  63 VRB5      30.35R
CANDO          FAIR      59  48  67 E5        30.35S
FORT TOTTEN      N/A     57  47  70 N6        29.95S
ROLLA          FAIR      63  43  48 NE8       30.32S
RUGBY          FAIR      63  46  55 SE7       30.31R
 ***** THE ABOVE OBSERVATIONS ARE NON NWS ARE NOT QUALITY
        CONTROLLED AND MAY MIS-REPORT RAIN FOR SNOW...
$$

 *****  OTHER OBSERVATIONS SOUTHEAST NORTH DAKOTA *****

CITY           SKY/WX    TMP DP  RH WIND       PRES   REMARKS
COOPERSTOWN    FAIR      63  45  51 NE8       30.32R
VALLEY CITY    FAIR      59  46  63 E5        30.33S
OAKES          NOT AVBL
GWINNER        FAIR      61  46  59 NE7       30.31S
SHEYENNE NWR     N/A     59  46  62 NE5       29.95S
BUFFALO        NOT AVBL
WYNDMERE       NOT AVBL
 ***** THE ABOVE OBSERVATIONS ARE NON NWS ARE NOT QUALITY
       CONTROLLED AND MAY MIS-REPORT RAIN FOR SNOW...
$$

  *****  WEATHER ACROSS NORTHERN MINNESOTA  *****

CITY           SKY/WX    TMP DP  RH WIND       PRES   REMARKS
FLAG ISLAND    CLOUDY    57  48  72 CALM      30.32R
WARROAD        CLOUDY    55  50  82 E6        30.34R
ROSEAU         CLOUDY    57  50  77 NW3       30.33R
HALLOCK        PTSUNNY   59  48  67 CALM      30.33R
THF RVR FALLS  CLOUDY    59  48  67 N3        30.33R
HALSTAD          N/A     62  48  61 NE7         N/A
FOSSTON        CLOUDY    57  52  82 N7        30.32R
BAUDETTE       CLOUDY    58  49  72 NW9       30.32R
WASKISH        CLOUDY    59  50  72 NE3       30.31S
CROOKSTON      CLOUDY    59  46  63 CALM      30.33R
$$
  *****  WEATHER ACROSS CENTRAL AND WEST MINNESOTA  *****

CITY           SKY/WX    TMP DP  RH WIND       PRES   REMARKS
BEMIDJI        CLOUDY    56  47  72 NE8       30.31R
PARK RAPIDS    CLOUDY    60  43  53 NE7       30.29R
WADENA         CLOUDY    59  46  63 N7        30.28R
DETROIT LAKES  PTSUNNY   59  46  63 E6        30.31S
MOORHEAD       PTSUNNY   63  48  59 N9        30.31R
FERGUS FALLS   PTSUNNY   61  48  63 E7        30.31S
ELBOW LAKE     MOCLDY    58  47  65 NE5       30.29S
MORRIS MN      MOSUNNY   64  46  52 NE8       30.26S
STAPLES        CLOUDY    59  46  63 N8        30.28R
WHEATON        NOT AVBL
$$
  *****  WEATHER ELSEWHERE ACROSS MINNESOTA  *****

CITY           SKY/WX    TMP DP  RH WIND       PRES   REMARKS
DULUTH         CLOUDY    57  49  74 E5        30.26R
INTRNTL FALLS  MOSUNNY   58  48  69 N9        30.31S
ELY            CLOUDY    55  46  71 NE5       30.28R
CLOQUET        CLOUDY    57  46  67 N6        30.26R
BRAINERD       CLOUDY    58  46  64 N8        30.28R
HIBBING        CLOUDY    57  47  69 N6        30.28R
ALEXANDRIA     PTSUNNY   61  47  59 N9        30.29S
SAINT CLOUD    PTSUNNY   63  49  60 NE14      30.25R
MINNEAPOLIS    CLOUDY    61  49  64 N12G25    30.21R
$$

  *****  WEATHER ACROSS SOUTH DAKOTA  *****

CITY           SKY/WX    TMP DP  RH WIND       PRES   REMARKS
SIOUX FALLS    MOSUNNY   64  45  49 VRB6G17   30.25S
BROOKINGS      SUNNY     60  44  55 N12       30.26S
WATERTOWN      SUNNY     62  45  53 NE8       30.27S
HURON          SUNNY     65  44  46 NE7       30.27S
SISSETON         N/A     58  46  64 NE8       30.30R
ABERDEEN       SUNNY     64  43  46 NE5       30.29S
MITCHELL       SUNNY     65  44  46 N7        30.27F
PIERRE         SUNNY     70  36  28 MISG      30.25F
MOBRIDGE       SUNNY     70  39  32 VRB3      30.26S
RAPID CITY     SUNNY     78  47  33 E7G16     30.25F
$$

  *****  SOME WEATHER IN NEARBY STATES *****

CITY           SKY/WX    TMP DP  RH WIND       PRES   REMARKS
GLASGOW MT     SUNNY     70  47  43 VRB6      30.24F
GREAT FALLS MT SUNNY     61  42  49 NE6       30.22F
CHEYENNE WY    SUNNY     75  34  22 S10       30.36F
SCOTTSBLUFF NE SUNNY     79  42  26 E6        30.27F
OMAHA NE       MOSUNNY   65  46  50 N13       30.20S
DES MOINES IA  CLOUDY    59  48  67 NW14      30.16R
DAVENPORT IA   CLOUDY    63  47  55 N17       30.04R
CHICAGO IL     LGT RAIN  55  51  86 NW9       29.95R
EAU CLAIRE WI  CLOUDY    65  49  56 NE14G21   30.15R
LA CROSSE WI   CLOUDY    61  56  83 N9        30.12R
$$

  *****  SOME NATIONAL WEATHER *****

CITY           SKY/WX    TMP DP  RH WIND       PRES   REMARKS
LA GUARDIA NY  CLOUDY    68  56  65 NE21      30.13S
RALEIGH NC     CLOUDY    82  69  64 S9        29.91F
ATLANTA GA     MOSUNNY   85  56  37 SW16G22   29.92F
NEW ORLEANS LA MOSUNNY   89  64  43 W3        29.97F HX  90
OKLAHOMA CITY  MOSUNNY   87  51  28 NE15      30.06F
ALBUQUERQUE NM PTSUNNY   78  45  30 VRB3      30.27F
SALT LAKE CITY MOSUNNY   79  50  36 N7        30.14F
LOS ANGELES CA MOSUNNY   86  51  29 SW9       29.91F
BOISE ID       SUNNY     88  40  18 SE15G23   29.99F
SEATTLE WA     MOSUNNY   63  49  60 N9        30.11S
$$

*** WEATHER ACROSS MANITOBA...SASKATCHEWAN AND ONTARIO ***
                ***ONTARIO***

CITY           SKY/WX    TMP DP  RH WIND       PRES   REMARKS
GERALDTON      CLOUDY    55  50  82 NE6       30.27R
THUNDER BAY    PTSUNNY   63  50  63 N6        30.24R
SIOUX LOOKOUT  CLOUDY    55  48  76 VRB2      30.33R
TORONTO        PTSUNNY   70  52  52 E17G25    30.04R
BIG TROUT LK   CLOUDY    55  48  76 W8        30.26R
PICKLE LAKE    CLOUDY    54  48  82 SW3       30.30S
DRYDEN         CLOUDY    57  46  67 E6        30.32R
KENORA         PTSUNNY   57  46  67 CALM      30.32S
$$
                *** MANITOBA***

CITY           SKY/WX    TMP DP  RH WIND       PRES   REMARKS
BRANDON        MOSUNNY   66  36  32 E8        30.31S
DAUPHIN        SUNNY     64  46  52 NE7       30.31S
ISLAND LAKE    MOSUNNY   57  46  67 W5        30.29R
PILOT MOUND      N/A     61  46  59 E3          N/A
THE PAS        MOSUNNY   63  32  31 W13       30.34S
THOMPSON       MOSUNNY   63  32  31 W14G23    30.26R
WINNIPEG       MOSUNNY   59  45  58 SW3       30.33S
LYNN LAKE      SUNNY     55  34  44 W14G22    30.25S
CHURCHILL      MOSUNNY   57  41  54 W20G26    30.04R
GILLAM         MOSUNNY   61  43  51 W12G20    30.18R
$$
                ***SASKATCHEWAN***

CITY           SKY/WX    TMP DP  RH WIND       PRES   REMARKS
ESTEVAN        MOSUNNY   73  48  40 SE10      30.26F
KINDERSLEY     CLOUDY    52  41  66 E5        30.18F
LLOYDMINSTER   CLOUDY    55  32  41 SE7       30.34F
PRINCE ALBERT  PTSUNNY   61  34  36 SW7       30.35F
REGINA         PTSUNNY   63  46  55 NE13      30.29S
YORKTON        SUNNY     64  46  52 NE12      30.31S   C1F1C2F2C3F3C4F4C5F5C6F6C7F7C8F8C9F9CaFaCbFbCcFcCdFdCe!



USA.gov is the U.S. government's official web portal to all federal, state and local government web resources and services.